This demonstration page uses our WeatherBlox Daily Observations layout. Learn more.

Left ArrowRight Arrow

Hourly Observations for December 4, 2022

Temp ( °F °C ) Dew Point ( °F °C ) Humidity (%) Winds ( mph kmh ) Pressure ( in mb ) Visibility ( mi km ) Precip ( " mm )
12:41 am 00:41 Mostly Cloudy 56 13.3 54 12.2 93 93 N 3 6 30.28 1025 10 16 0.00 0.00
12:53 am 00:53 Cloudy 55 12.8 53 11.7 93 93 NNW 6 9 30.26 1025 10 16 0.00 0.00
1:27 am 01:27 Mostly Cloudy 54 12.2 51 10.6 90 90 VRB 3 6 30.26 1025 10 16 0.00 0.00
1:35 am 01:35 Partly Cloudy 54 12.2 51 10.6 90 90 Calm 30.26 1025 10 16 0.00 0.00
1:53 am 01:53 Clear 53 11.7 50 10 89 89 Calm 30.26 1025 10 16 0.00 0.00
2:53 am 02:53 Clear 51 10.6 48 8.9 89 89 Calm 30.25 1024 10 16 0.00 0.00
3:53 am 03:53 Clear 49 9.4 46 7.8 90 90 VRB 3 6 30.24 1024 10 16 0.00 0.00
4:53 am 04:53 Clear 47 8.3 43 6.1 86 86 N 3 6 30.24 1024 10 16 0.00 0.00
5:53 am 05:53 Clear 45 7.2 42 5.6 90 90 Calm 30.24 1024 10 16 0.00 0.00
6:53 am 06:53 Clear 44 6.7 40 4.4 85 85 Calm 30.24 1024 10 16 0.00 0.00
7:53 am 07:53 Sunny 43 6.1 40 4.4 89 89 Calm 30.25 1024 10 16 0.00 0.00
8:53 am 08:53 Sunny 46 7.8 40 4.4 79 79 NNW 3 6 30.27 1025 10 16 0.00 0.00
9:53 am 09:53 Sunny 49 9.4 41 5 74 74 Calm 30.27 1025 10 16 0.00 0.00
10:53 am 10:53 Mostly Sunny 53 11.7 42 5.6 66 66 WSW 3 6 30.26 1025 10 16 0.00 0.00
11:53 am 11:53 Sunny 56 13.3 42 5.6 60 60 SW 5 7 30.22 1023 10 16 0.00 0.00
12:53 pm 12:53 Mostly Cloudy 58 14.4 45 7.2 62 62 WNW 6 9 30.20 1023 10 16 0.00 0.00
1:53 pm 13:53 Mostly Cloudy 59 15 47 8.3 64 64 WNW 6 9 30.17 1022 10 16 0.00 0.00
2:02 pm 14:02 Mostly Sunny 59 15 47 8.3 64 64 WNW 7 11 30.17 1022 10 16 0.00 0.00
2:53 pm 14:53 Sunny 59 15 47 8.3 64 64 WNW 9 15 30.16 1021 10 16 0.00 0.00
3:53 pm 15:53 Cloudy 58 14.4 47 8.3 67 67 WNW 8 13 30.16 1021 10 16 0.00 0.00
4:53 pm 16:53 Sunny 57 13.9 46 7.8 67 67 NNW 7 11 30.16 1021 10 16 0.00 0.00
5:53 pm 17:53 Clear 54 12.2 42 5.6 64 64 NNW 3 6 30.15 1021 10 16 0.00 0.00
6:53 pm 18:53 Mostly Cloudy 52 11.1 43 6.1 71 71 NW 5 7 30.17 1022 10 16 0.00 0.00
7:53 pm 19:53 Mostly Cloudy 53 11.7 42 5.6 66 66 W 3 6 30.16 1021 10 16 0.00 0.00
8:53 pm 20:53 Cloudy 53 11.7 42 5.6 66 66 SSE 3 6 30.11 1020 10 16 0.01 0.13
9:53 pm 21:53 Cloudy 51 10.6 43 6.1 74 74 W 3 6 30.13 1020 10 16 0.00 0.00
10:53 pm 22:53 Cloudy 51 10.6 42 5.6 71 71 Calm 30.14 1021 10 16 0.00 0.00
11:53 pm 23:53 Cloudy 51 10.6 38 3.3 61 61 Calm 30.15 1021 10 16 0.00 0.00

Powered by AerisWeather